N7TUG Weather Reports


time (UTC)temp
C
wind
direction
speed
KPH
gust
KPH
rain 1hr
cm
rain 24hr
cm
rain mn
cm
humidity
%
barometer
mb
20260504002515 24 312 9.7 20.9 0.00 0.00 0.00 52 1009.4
20260504001516 24 307 11.3 20.9 0.00 0.00 0.00 53 1009.4
20260504000515 25 299 8.0 16.1 0.00 0.00 0.00 53 1009.5
20260503235602 24 305 6.4 14.5 0.00 0.00 0.00 53 1009.6
20260503234515 24 335 6.4 19.3 0.00 0.00 0.00 54 1009.7
20260503233515 23 310 11.3 19.3 0.00 0.00 0.00 54 1009.9
20260503232515 24 324 8.0 14.5 0.00 0.00 0.00 54 1009.9
20260503231515 24 334 4.8 12.9 0.00 0.00 0.00 54 1010.0
20260503230516 25 315 6.4 12.9 0.00 0.00 0.00 53 1010.2
20260503225515 24 323 8.0 14.5 0.00 0.00 0.00 54 1010.4
20260503224535 23 314 9.7 17.7 0.00 0.00 0.00 54 1010.6
20260503223515 23 316 9.7 19.3 0.00 0.00 0.00 54 1010.8
20260503222535 23 317 11.3 19.3 0.00 0.00 0.00 55 1010.9
20260503221515 23 331 12.9 20.9 0.00 0.00 0.00 55 1011.0
20260503220515 23 333 12.9 20.9 0.00 0.00 0.00 55 1011.2
20260503215516 23 326 11.3 20.9 0.00 0.00 0.00 56 1011.2
20260503214555 22 315 12.9 20.9 0.00 0.00 0.00 59 1011.3
20260503213635 22 321 14.5 20.9 0.00 0.00 0.00 60 1011.4
20260503212514 21 327 12.9 19.3 0.00 0.00 0.00 61 1011.4
20260503211535 22 315 14.5 19.3 0.00 0.00 0.00 59 1011.5
20260503210555 22 321 12.9 17.7 0.00 0.00 0.00 56 1011.5
20260503205515 22 324 11.3 19.3 0.00 0.00 0.00 57 1011.5
20260503204514 22 321 11.3 20.9 0.00 0.00 0.00 56 1011.7
20260503203515 22 332 12.9 20.9 0.00 0.00 0.00 57 1011.9
20260503202515 22 319 11.3 20.9 0.00 0.00 0.00 58 1011.9
20260503201555 21 338 12.9 20.9 0.00 0.00 0.00 58 1012.1
20260503200515 22 320 11.3 19.3 0.00 0.00 0.00 57 1012.2
20260503195515 21 338 14.5 24.1 0.00 0.00 0.00 59 1012.4
20260503194515 22 331 9.7 16.1 0.00 0.00 0.00 59 1012.5
20260503193516 22 313 11.3 17.7 0.00 0.00 0.00 60 1012.6
20260503192515 22 331 11.3 19.3 0.00 0.00 0.00 60 1012.8
20260503191516 22 326 9.7 17.7 0.00 0.00 0.00 60 1012.9
20260503190516 21 331 9.7 17.7 0.00 0.00 0.00 63 1013.0
20260503185515 21 310 12.9 17.7 0.00 0.00 0.00 64 1013.1
20260503184515 21 313 8.0 16.1 0.00 0.00 0.00 64 1013.2
20260503183535 20 318 9.7 16.1 0.00 0.00 0.00 65 1013.1
20260503182516 20 288 9.7 14.5 0.00 0.00 0.00 65 1013.3
20260503181536 20 282 8.0 14.5 0.00 0.00 0.00 65 1013.4
20260503180515 20 277 6.4 14.5 0.00 0.00 0.00 66 1013.4
20260503175515 20 264 6.4 14.5 0.00 0.00 0.00 67 1013.5
20260503174515 19 283 9.7 16.1 0.00 0.00 0.00 68 1013.5
20260503173515 19 290 9.7 17.7 0.00 0.00 0.00 68 1013.5
20260503172514 20 317 8.0 19.3 0.00 0.00 0.00 67 1013.6
20260503171515 19 310 8.0 17.7 0.00 0.00 0.00 68 1013.6
20260503170535 18 312 11.3 19.3 0.00 0.00 0.00 70 1013.6
20260503150516 16 305 6.4 11.3 0.00 0.00 0.00 72 1014.0
20260503130515 12 338 3.2 6.4 0.00 0.00 0.00 81 1013.6
20260503110515 13 285 1.6 3.2 0.00 0.00 0.00 79 1013.9
20260503081515 15 258 1.6 1.6 0.00 0.00 0.00 72 1013.9
20260503080515 15 264 1.6 3.2 0.00 0.00 0.00 72 1013.9
20260503072515 15 314 1.6 3.2 0.00 0.00 0.00 70 1013.8
20260503071516 15 275 1.6 3.2 0.00 0.00 0.00 70 1013.8
20260503070515 16 251 1.6 3.2 0.00 0.00 0.00 70 1013.8
20260503054515 17 190 0.0 1.6 0.00 0.00 0.00 66 1013.6
20260503053515 17 247 1.6 1.6 0.00 0.00 0.00 66 1013.6
20260503052615 17 235 1.6 3.2 0.00 0.00 0.00 66 1013.7
20260503051515 17 280 1.6 3.2 0.00 0.00 0.00 66 1013.6
20260503050515 17 356 0.0 1.6 0.00 0.00 0.00 65 1013.6
20260503045515 17 163 0.0 3.2 0.00 0.00 0.00 64 1013.6
20260503044555 18 225 1.6 3.2 0.00 0.00 0.00 63 1013.5
20260503043535 18 227 1.6 3.2 0.00 0.00 0.00 63 1013.3
20260503042535 19 227 1.6 4.8 0.00 0.00 0.00 62 1013.2
20260503041515 20 199 1.6 8.0 0.00 0.00 0.00 60 1013.1
20260503040515 20 308 4.8 8.0 0.00 0.00 0.00 58 1012.9
20260503035515 20 330 3.2 8.0 0.00 0.00 0.00 59 1012.7
20260503034515 20 313 3.2 6.4 0.00 0.00 0.00 60 1012.7
20260503033515 19 328 3.2 8.0 0.00 0.00 0.00 61 1012.7
20260503032516 19 317 4.8 11.3 0.00 0.00 0.00 62 1012.6
20260503031515 19 313 6.4 11.3 0.00 0.00 0.00 62 1012.5
20260503030514 20 311 8.0 11.3 0.00 0.00 0.00 62 1012.5
20260503025535 20 308 6.4 11.3 0.00 0.00 0.00 61 1012.4
20260503024514 20 293 6.4 14.5 0.00 0.00 0.00 61 1012.4
20260503023535 20 302 4.8 14.5 0.00 0.00 0.00 61 1012.5
20260503022515 20 302 6.4 12.9 0.00 0.00 0.00 60 1012.4
20260503021536 21 308 6.4 12.9 0.00 0.00 0.00 60 1012.3
20260503020515 21 300 8.0 17.7 0.00 0.00 0.00 60 1012.4
20260503015515 21 301 9.7 19.3 0.00 0.00 0.00 61 1012.4
20260503014515 21 318 11.3 19.3 0.00 0.00 0.00 61 1012.3
20260503013515 21 316 9.7 20.9 0.00 0.00 0.00 60 1012.4
20260503012515 21 317 12.9 22.5 0.00 0.00 0.00 60 1012.5
20260503011515 21 322 11.3 22.5 0.00 0.00 0.00 59 1012.4
20260503010515 21 318 11.3 20.9 0.00 0.00 0.00 59 1012.4
20260503005515 21 321 12.9 20.9 0.00 0.00 0.00 58 1012.5
20260503004515 21 331 11.3 20.9 0.00 0.00 0.00 58 1012.7
20260503003515 21 326 11.3 22.5 0.00 0.00 0.00 58 1012.7